Weather History for Montpelier, VT

Change the Weather History Date:

Monday, November 19, 2012

  Actual Average Record
Temperature  
Mean Temperature 31 °F 34 °F  
Max Temperature 44 °F 42 °F 68 °F (1953)
Min Temperature 17 °F 26 °F 5 °F (1956)
Degree Days  
Heating Degree Days 34 31  
Month to date heating degree days 581 523  
Since 1 July heating degree days 1392 1479  
Moisture  
Dew Point 21 °F    
Average Humidity 73    
Maximum Humidity 100    
Minimum Humidity 45    
Precipitation  
Precipitation 0.00 in 0.11 in 0.82 in (1948)
Month to date precipitation 0.76 2.03  
Year to date precipitation 30.21 33.39  
Sea Level Pressure  
Sea Level Pressure 30.52 in    
Wind  
Wind Speed 1 mph (South)    
Max Wind Speed 6 mph    
Max Gust Speed 6 mph    
Visibility 7 miles    
Events Fog    
T = Trace of Precipitation, MM = Missing Value Source: NWS Daily Summary

Daily Weather History Graph

Daily Weather History Graph

Search for Another Location

Airport:

Trip Planner

Search our weather history database for the weather conditions in past years. The results will help you decide how hot, cold, wet, or windy it might be!

Date:

Astronomy

Nov. 19, 2012 Rise Set
Actual Time 6:51 AM EST 4:19 PM EST
Civil Twilight 6:19 AM EST 4:51 PM EST
Nautical Twilight 5:44 AM EST 5:26 PM EST
Astronomical Twilight 5:10 AM EST 6:00 PM EST
Moon 11:48 AM EST 10:49 PM EST
Length of Visible Light 10h 31m
Length of Day
9h 27m
Waxing Crescent, 40% of the Moon is Illuminated
Nov 19
Waxing Crescent
Nov 20
First Quarter
Nov 28
Full
Dec 6
Last Quarter
Dec 13
New

Hourly Weather History & Observations

Time (EST) Temp. Windchill Dew Point Humidity Pressure Visibility Wind Dir Wind Speed Gust Speed Precip Events Conditions
12:51 AM 21.9 °F - 21.0 °F 96% 30.66 in 8.0 mi Calm Calm - N/A   Clear
1:51 AM 19.9 °F - 19.0 °F 96% 30.65 in 7.0 mi Calm Calm - N/A   Clear
2:51 AM 21.0 °F - 19.9 °F 96% 30.64 in 7.0 mi Calm Calm - N/A   Clear
3:51 AM 21.0 °F - 19.9 °F 96% 30.63 in 6.0 mi Calm Calm - N/A   Clear
4:51 AM 19.4 °F - 17.6 °F 93% 30.58 in 7.0 mi Calm Calm - N/A   Clear
5:51 AM 19.0 °F - 17.1 °F 92% 30.63 in 7.0 mi Calm Calm - N/A   Clear
6:06 AM 17.6 °F - 17.6 °F 100% 30.57 in 2.5 mi Calm Calm - N/A   Partly Cloudy
6:08 AM 19.4 °F - 17.6 °F 93% 30.57 in 1.0 mi Calm Calm - N/A   Mist
6:15 AM 19.4 °F - 17.6 °F 93% 30.56 in 0.2 mi Calm Calm - N/A Fog Light Freezing Fog
6:26 AM 19.4 °F - 17.6 °F 93% 30.55 in 1.2 mi Calm Calm - N/A   Mostly Cloudy
6:30 AM 19.4 °F - 17.6 °F 93% 30.55 in 2.0 mi Calm Calm - N/A   Mostly Cloudy
6:40 AM 17.6 °F - 17.6 °F 100% 30.56 in 6.0 mi Calm Calm - N/A   Partly Cloudy
6:51 AM 19.0 °F - 17.1 °F 92% 30.63 in 5.0 mi Calm Calm - N/A   Clear
7:51 AM 21.9 °F 17.2 °F 21.9 °F 100% 30.62 in 6.0 mi SSE 3.5 mph - N/A   Clear
8:51 AM 25.0 °F - 25.0 °F 100% 30.60 in 6.0 mi Calm Calm - N/A   Clear
9:51 AM 30.0 °F 26.5 °F 26.1 °F 85% 30.58 in 9.0 mi NE 3.5 mph - N/A   Clear
10:51 AM 34.0 °F 31.0 °F 27.0 °F 75% 30.55 in 10.0 mi WNW 3.5 mph - N/A   Clear
11:51 AM 37.9 °F - 28.0 °F 68% 30.53 in 10.0 mi Calm Calm - N/A   Clear
12:51 PM 42.1 °F 40.2 °F 27.0 °F 55% 30.49 in 10.0 mi Variable 3.5 mph - N/A   Clear
1:51 PM 44.1 °F - 25.0 °F 47% 30.46 in 10.0 mi Calm Calm - N/A   Clear
2:51 PM 44.1 °F - 24.1 °F 45% 30.44 in 10.0 mi Calm Calm - N/A   Clear
3:51 PM 41.0 °F - 24.1 °F 51% 30.43 in 10.0 mi Calm Calm - N/A   Clear
4:51 PM 30.0 °F - 23.0 °F 75% 30.43 in 10.0 mi Calm Calm - N/A   Clear
5:51 PM 28.9 °F 25.2 °F 23.0 °F 78% 30.43 in 10.0 mi South 3.5 mph - N/A   Clear
6:51 PM 28.0 °F - 21.9 °F 78% 30.42 in 10.0 mi Calm Calm - N/A   Clear
7:51 PM 27.0 °F - 21.9 °F 81% 30.41 in 10.0 mi Calm Calm - N/A   Clear
8:51 PM 24.8 °F - 21.2 °F 86% 30.34 in 10.0 mi Calm Calm - N/A   Clear
9:51 PM 25.0 °F - 21.9 °F 88% 30.38 in 10.0 mi Calm Calm - N/A   Clear
10:51 PM 21.9 °F - 19.0 °F 89% 30.36 in 10.0 mi Calm Calm - N/A   Clear
11:51 PM 21.9 °F - 19.9 °F 92% 30.35 in 9.0 mi Calm Calm - N/A   Clear